Regional Weather Roundup
Issued by NWS

Home | Current Version | Previous Version | Graphics & Text | Print | Product List | Glossary On
Versions: 1 2 3 4 5 6 7 8 9 10 11 12 13 14 15 16 17 18 19 20 21 22 23 24 25 26 27 28 29 30 31 32 33 34 35 36 37 38 39 40 41 42 43 44 45 46 47 48 49 50
000
ASUS43 KFSD 291710
RWRSD

WEATHER ROUNDUP FOR SOUTH DAKOTA
NATIONAL WEATHER SERVICE SIOUX FALLS SD
1200 PM CDT SAT APR 29 2017

NOTE: "FAIR" INDICATES FEW OR NO CLOUDS BELOW 12,000 FEET WITH NO
SIGNIFICANT WEATHER AND/OR OBSTRUCTIONS TO VISIBILITY.


SDZ001>005-009-010-012>017-291800-
NORTHWEST AND NORTH CENTRAL SOUTH DAKOTA

CITY           SKY/WX    TMP DP  RH WIND       PRES   REMARKS
BUFFALO          N/A     51  18  27 CALM      30.22S
FAITH            N/A     52  16  24 E5        30.29S
MOBRIDGE       SUNNY     56  14  19 W7        30.30R
$$

SDZ012>016-024>037-041>051-057-063-072>074-291800-
SOUTHWEST AND SOUTH CENTRAL SOUTH DAKOTA

CITY           SKY/WX    TMP DP  RH WIND       PRES   REMARKS
RAPID CTY ARPT PTSUNNY   50  18  28 E6        30.28F
PIERRE         PTSUNNY   52  18  26 NE6       30.29F
CUSTER         CLOUDY    35   9  33 E8        30.24F WCI  29
ELLSWORTH AFB  MOSUNNY   48  15  26 CALM      30.28F
PHILIP         MOSUNNY   53  19  26 NE8       30.28F
PINE RIDGE     MOSUNNY   47  22  37 NE13      30.25F
SPEARFISH      FAIR      46  12  25 E10       30.27F
WINNER         FAIR      51  20  29 NE15G22   30.25F
$$

SDZ004>011-016>023-039-040-291800-
NORTHEAST SOUTH DAKOTA

CITY           SKY/WX    TMP DP  RH WIND       PRES   REMARKS
ABERDEEN       SUNNY     52  15  23 N6        30.33R
WATERTOWN      SUNNY     48  22  35 VRB6      30.29R
BROOKINGS      CLOUDY    47  18  31 NE10      30.27R
SISSETON         N/A     51  23  33 VRB7      30.32R
$$

SDZ017-020-022-023-036>040-048>070-291800-
SOUTHEAST SOUTH DAKOTA

CITY           SKY/WX    TMP DP  RH WIND       PRES   REMARKS
SIOUX FALLS    CLOUDY    50  31  48 NE16      30.23S
HURON          MOSUNNY   51  21  30 VRB5      30.30R
CHAMBERLAIN    CLOUDY    52  20  28 N10       30.26F
MITCHELL       CLOUDY    52  23  32 N15G22    30.26F
YANKTON        CLOUDY    48  28  46 NE20      30.18F
$$

ABBREVIATIONS USED IN REMARKS
   TC - TEMPERATURE IN CELSIUS
  WCI - WIND CHILL INDEX
   HX - HEAT INDEX
  VSB - VISIBILITY




USA.gov is the U.S. government's official web portal to all federal, state and local government web resources and services.